Retour au catalogue

CZ-6A DEB

ActifPO
NORAD 61171·DEBRIS·🇨🇳 China

Lancé Aug 6, 2024 depuis Taiyuan Satellite Launch Center

Loading…

Prochains Passages (prochaines 24 heures)

TLE

FraisSource: Space-Track

Époque: Sep 13, 2026, 23:22 UTC

1 61171U 24140RR  26256.97426261  .00004980  00000-0  11486-2 0  9998
2 61171  88.9903 259.9690 0070622   9.1392 351.1083 14.53639925109059

Suivez CZ-6A DEB en temps réel avec AllMySat

Download on the App Store